UTA491 UWUU-URSS

Flight info

Callsign UTA491
Flight time N/A
Altitude 34000
Route GAPMA3F GAPMA DCT EKTEN DCT OLAPU DCT KOLIB DCT IPLED DCT MEMZA DCT VENFO DCT BINOL BINOL1G
Aircraft B735/M-SDFHIW/S

Departure

Time 2026-05-09 08:43
Airport Ufa International Airport (UWUU)

Arrival

Time N/A
Airport Sochi International Airport (URSS)
Time Latitude Longitude Altitude Speed Heading
2026-05-09 08:29 54.56220 55.88438 450 ft 8 kts 150°
2026-05-09 08:30 54.55903 55.88742 450 ft 8 kts 151°
2026-05-09 08:31 54.55850 55.88791 449 ft 9 kts 151°
2026-05-09 08:31 54.55799 55.88840 448 ft 8 kts 150°
2026-05-09 08:31 54.55750 55.88889 449 ft 8 kts 150°
2026-05-09 08:31 54.55699 55.88938 450 ft 8 kts 150°
2026-05-09 08:32 54.55648 55.88987 450 ft 8 kts 150°
2026-05-09 08:32 54.55613 55.89021 448 ft 9 kts 150°
2026-05-09 08:32 54.55506 55.89123 448 ft 9 kts 151°
2026-05-09 08:33 54.55450 55.89177 449 ft 9 kts 150°
2026-05-09 08:33 54.55391 55.89234 450 ft 10 kts 150°
2026-05-09 08:33 54.55329 55.89294 450 ft 10 kts 150°
2026-05-09 08:33 54.55267 55.89354 450 ft 10 kts 151°
2026-05-09 08:34 54.55211 55.89408 449 ft 9 kts 150°
2026-05-09 08:34 54.55158 55.89458 449 ft 8 kts 150°
2026-05-09 08:34 54.55107 55.89508 449 ft 8 kts 151°
2026-05-09 08:34 54.55055 55.89557 449 ft 9 kts 150°
2026-05-09 08:35 54.55003 55.89608 450 ft 9 kts 150°
2026-05-09 08:35 54.54954 55.89635 450 ft 7 kts 188°
2026-05-09 08:35 54.54908 55.89602 448 ft 7 kts 211°
2026-05-09 08:35 54.54862 55.89555 448 ft 8 kts 211°
2026-05-09 08:36 54.54816 55.89506 450 ft 8 kts 211°
2026-05-09 08:36 54.54768 55.89457 450 ft 8 kts 212°
2026-05-09 08:36 54.54732 55.89396 449 ft 7 kts 236°
2026-05-09 08:36 54.54702 55.89320 450 ft 8 kts 243°
2026-05-09 08:37 54.54682 55.89231 450 ft 8 kts 251°
2026-05-09 08:37 54.54665 55.89143 449 ft 8 kts 252°
2026-05-09 08:37 54.54648 55.89053 448 ft 8 kts 251°
2026-05-09 08:37 54.54629 55.88966 450 ft 8 kts 249°
2026-05-09 08:38 54.54611 55.88880 450 ft 7 kts 251°
2026-05-09 08:38 54.54595 55.88800 450 ft 7 kts 251°
2026-05-09 08:38 54.54579 55.88720 450 ft 7 kts 251°
2026-05-09 08:38 54.54563 55.88639 450 ft 7 kts 250°
2026-05-09 08:39 54.54546 55.88558 450 ft 7 kts 251°
2026-05-09 08:39 54.54530 55.88479 450 ft 7 kts 250°
2026-05-09 08:39 54.54513 55.88399 450 ft 7 kts 250°
2026-05-09 08:39 54.54497 55.88318 450 ft 7 kts 251°
2026-05-09 08:40 54.54481 55.88237 450 ft 7 kts 250°
2026-05-09 08:40 54.54464 55.88156 450 ft 7 kts 250°
2026-05-09 08:40 54.54448 55.88076 449 ft 7 kts 250°
2026-05-09 08:40 54.54431 55.87996 450 ft 7 kts 250°
2026-05-09 08:41 54.54416 55.87917 450 ft 7 kts 251°
2026-05-09 08:41 54.54400 55.87839 450 ft 7 kts 251°
2026-05-09 08:41 54.54398 55.87775 451 ft 4 kts 283°
2026-05-09 08:41 54.54416 55.87731 450 ft 5 kts 322°
2026-05-09 08:42 54.54447 55.87699 451 ft 7 kts 330°
2026-05-09 08:42 54.54615 55.87536 452 ft 54 kts 330°
2026-05-09 08:42 54.55111 55.87059 449 ft 110 kts 330°
2026-05-09 08:42 54.55940 55.86252 456 ft 163 kts 330°
2026-05-09 08:43 54.57025 55.85238 765 ft 189 kts 331°
2026-05-09 08:43 54.58104 55.84000 1532 ft 182 kts 317°
2026-05-09 08:43 54.58763 55.82238 2354 ft 180 kts 288°
2026-05-09 08:43 54.58844 55.79833 2264 ft 231 kts 268°
2026-05-09 08:44 54.58420 55.76909 2629 ft 266 kts 252°
2026-05-09 08:44 54.57619 55.74057 3893 ft 262 kts 243°
2026-05-09 08:44 54.56695 55.71423 5216 ft 254 kts 243°
2026-05-09 08:44 54.55837 55.68737 6095 ft 261 kts 248°
2026-05-09 08:45 54.55103 55.65844 6609 ft 264 kts 252°
2026-05-09 08:45 54.54466 55.62832 6693 ft 276 kts 255°
2026-05-09 08:45 54.53802 55.59647 6795 ft 285 kts 252°
2026-05-09 08:45 54.53014 55.56503 7290 ft 289 kts 248°
2026-05-09 08:46 54.52064 55.53418 8118 ft 293 kts 243°
2026-05-09 08:46 54.50985 55.50428 9179 ft 294 kts 240°
2026-05-09 08:46 54.49864 55.47509 10284 ft 292 kts 240°
2026-05-09 08:46 54.48803 55.44528 11281 ft 293 kts 243°
2026-05-09 08:47 54.47851 55.41486 12174 ft 295 kts 246°
2026-05-09 08:47 54.46950 55.38242 13103 ft 297 kts 249°
2026-05-09 08:47 54.46139 55.34963 14000 ft 299 kts 251°
2026-05-09 08:47 54.45393 55.31620 14884 ft 300 kts 252°
2026-05-09 08:48 54.44619 55.28277 15739 ft 303 kts 250°
2026-05-09 08:48 54.43734 55.24956 16507 ft 308 kts 248°
2026-05-09 08:48 54.42767 55.21633 17220 ft 314 kts 246°
2026-05-09 08:48 54.41754 55.18274 17944 ft 320 kts 246°
2026-05-09 08:49 54.40725 55.14867 18706 ft 323 kts 246°
2026-05-09 08:49 54.39670 55.11448 19491 ft 326 kts 245°
2026-05-09 08:49 54.38578 55.08015 20210 ft 329 kts 245°
2026-05-09 08:49 54.37477 55.04545 20848 ft 334 kts 245°
2026-05-09 08:50 54.36382 55.00999 21467 ft 339 kts 246°
2026-05-09 08:50 54.35301 54.97381 22085 ft 343 kts 247°
2026-05-09 08:50 54.34228 54.93697 22708 ft 346 kts 247°
2026-05-09 08:50 54.33187 54.89966 23326 ft 349 kts 249°
2026-05-09 08:51 54.32171 54.86186 23940 ft 351 kts 248°
2026-05-09 08:51 54.31106 54.82393 24556 ft 354 kts 247°
2026-05-09 08:51 54.29972 54.78643 25166 ft 356 kts 245°
2026-05-09 08:51 54.28798 54.74892 25777 ft 358 kts 245°
2026-05-09 08:52 54.27624 54.71136 26379 ft 359 kts 246°
2026-05-09 08:52 54.26475 54.67349 26949 ft 360 kts 246°
2026-05-09 08:52 54.25349 54.63497 27436 ft 363 kts 247°
2026-05-09 08:52 54.24223 54.59595 27793 ft 371 kts 245°
2026-05-09 08:53 54.22769 54.55888 27847 ft 392 kts 232°
2026-05-09 08:53 54.20683 54.52755 27734 ft 406 kts 217°
2026-05-09 08:53 54.18192 54.50489 27821 ft 404 kts 207°
2026-05-09 08:53 54.15561 54.48842 28178 ft 406 kts 201°
2026-05-09 08:54 54.12858 54.47438 28771 ft 405 kts 202°
2026-05-09 08:54 54.10237 54.45778 29393 ft 399 kts 209°
2026-05-09 08:54 54.07795 54.43588 29938 ft 396 kts 215°
2026-05-09 08:54 54.05447 54.41096 30294 ft 398 kts 216°
2026-05-09 08:55 54.03039 54.38716 30347 ft 403 kts 211°
2026-05-09 08:55 54.00480 54.36752 30109 ft 404 kts 206°
2026-05-09 08:55 53.97840 54.35102 29663 ft 404 kts 202°
2026-05-09 08:55 53.95170 54.33628 29067 ft 404 kts 202°
2026-05-09 08:56 53.92537 54.32000 28461 ft 400 kts 207°
2026-05-09 08:56 53.90042 54.29944 27784 ft 398 kts 213°
2026-05-09 08:56 53.87649 54.27601 27090 ft 398 kts 215°
2026-05-09 08:56 53.85272 54.25156 26364 ft 400 kts 214°
2026-05-09 08:57 53.82829 54.22927 25953 ft 396 kts 209°
2026-05-09 08:57 53.80292 54.21159 25720 ft 396 kts 204°
2026-05-09 08:57 53.77662 54.19667 25521 ft 404 kts 201°
2026-05-09 08:57 53.74955 54.18155 25553 ft 415 kts 204°
2026-05-09 08:58 53.72299 54.16267 26196 ft 411 kts 211°
2026-05-09 08:58 53.69845 54.13955 27233 ft 397 kts 216°
2026-05-09 08:58 53.67531 54.11492 28047 ft 392 kts 216°
2026-05-09 08:58 53.65117 54.09226 28282 ft 406 kts 209°
2026-05-09 08:59 53.62436 54.07363 28205 ft 426 kts 203°
2026-05-09 08:59 53.59595 54.05789 28497 ft 432 kts 201°
2026-05-09 08:59 53.56780 54.04195 29364 ft 420 kts 205°
2026-05-09 08:59 53.54165 54.02206 30211 ft 408 kts 212°
2026-05-09 09:00 53.51720 53.99798 30508 ft 411 kts 216°
2026-05-09 09:00 53.49246 53.97184 30310 ft 430 kts 214°
2026-05-09 09:00 53.46528 53.94835 30357 ft 442 kts 208°
2026-05-09 09:00 53.43753 53.92789 31290 ft 430 kts 206°
2026-05-09 09:01 53.41022 53.90874 32051 ft 422 kts 206°
2026-05-09 09:01 53.38337 53.89024 32780 ft 414 kts 206°
2026-05-09 09:01 53.35658 53.87219 33115 ft 417 kts 205°
2026-05-09 09:01 53.32967 53.85420 33245 ft 423 kts 205°
2026-05-09 09:02 53.30199 53.83567 33603 ft 425 kts 205°
2026-05-09 09:02 53.27484 53.81757 33846 ft 428 kts 206°
2026-05-09 09:02 53.24705 53.79775 33670 ft 438 kts 208°
2026-05-09 09:02 53.21939 53.77642 33549 ft 434 kts 210°
2026-05-09 09:03 53.19212 53.75464 33591 ft 440 kts 210°
2026-05-09 09:03 53.16428 53.73197 33689 ft 451 kts 210°
2026-05-09 09:03 53.13596 53.70846 33902 ft 458 kts 211°
2026-05-09 09:03 53.10745 53.68434 34097 ft 454 kts 211°
2026-05-09 09:04 53.08010 53.66063 34055 ft 436 kts 212°
2026-05-09 09:04 53.05349 53.63630 33842 ft 439 kts 213°
2026-05-09 09:04 53.02657 53.61176 33760 ft 444 kts 211°
2026-05-09 09:05 52.97040 53.56623 33791 ft 453 kts 208°
2026-05-09 09:05 52.94165 53.54482 33959 ft 454 kts 207°
2026-05-09 09:05 52.91266 53.52348 34013 ft 458 kts 207°
2026-05-09 09:06 52.85462 53.47935 34036 ft 459 kts 209°
2026-05-09 09:06 52.79753 53.43387 33894 ft 456 kts 208°
2026-05-09 09:07 52.74014 53.39014 33866 ft 453 kts 207°
2026-05-09 09:07 52.71125 53.36884 34134 ft 455 kts 207°
2026-05-09 09:07 52.68239 53.34758 34667 ft 453 kts 207°
2026-05-09 09:07 52.65372 53.32646 35238 ft 451 kts 207°
2026-05-09 09:08 52.62514 53.30525 35634 ft 452 kts 207°
2026-05-09 09:08 52.56691 53.26133 35731 ft 467 kts 208°
2026-05-09 09:09 52.50835 53.21497 35733 ft 469 kts 207°
2026-05-09 09:09 52.47908 53.19310 35743 ft 455 kts 207°
2026-05-09 09:09 52.45043 53.17246 35462 ft 444 kts 206°
2026-05-09 09:09 52.42229 53.15312 35190 ft 432 kts 205°
2026-05-09 09:10 52.39531 53.13446 35659 ft 418 kts 206°
2026-05-09 09:10 52.36821 53.11547 35609 ft 430 kts 206°
2026-05-09 09:10 52.34051 53.09603 35733 ft 436 kts 206°
2026-05-09 09:10 52.31252 53.07630 35841 ft 443 kts 206°
2026-05-09 09:11 52.28377 53.05627 35662 ft 451 kts 206°
2026-05-09 09:11 52.25484 53.03619 35344 ft 453 kts 204°
2026-05-09 09:11 52.22458 53.02009 34751 ft 464 kts 195°
2026-05-09 09:11 52.19288 53.01246 34966 ft 448 kts 187°
2026-05-09 09:12 52.16272 53.00810 35655 ft 428 kts 189°
2026-05-09 09:12 52.13326 53.00191 35838 ft 427 kts 192°
2026-05-09 09:12 52.10390 52.99338 35914 ft 432 kts 194°
2026-05-09 09:13 52.04379 52.97346 35964 ft 450 kts 194°
2026-05-09 09:13 51.98089 52.95384 35957 ft 467 kts 193°
2026-05-09 09:14 51.91679 52.93497 35913 ft 466 kts 192°
2026-05-09 09:14 51.85337 52.91581 35916 ft 463 kts 193°
2026-05-09 09:15 51.79004 52.89643 35921 ft 463 kts 192°
2026-05-09 09:15 51.72701 52.87764 35927 ft 464 kts 192°
2026-05-09 09:16 51.66354 52.85870 35929 ft 465 kts 193°
2026-05-09 09:16 51.56829 52.82972 35935 ft 464 kts 192°
2026-05-09 09:17 51.50497 52.81074 35931 ft 464 kts 192°
2026-05-09 09:17 51.44149 52.79169 35934 ft 464 kts 192°
2026-05-09 09:18 51.38823 52.77576 35939 ft 464 kts 192°
2026-05-09 09:18 51.32515 52.75690 35942 ft 464 kts 192°
2026-05-09 09:19 51.26167 52.73784 35941 ft 464 kts 192°
2026-05-09 09:19 51.19808 52.71897 35941 ft 465 kts 192°
2026-05-09 09:20 51.13453 52.69999 35942 ft 465 kts 192°
2026-05-09 09:20 51.07091 52.68116 35931 ft 465 kts 192°
2026-05-09 09:21 51.00730 52.66227 35934 ft 464 kts 192°
2026-05-09 09:21 50.94383 52.64335 35942 ft 465 kts 192°
2026-05-09 09:22 50.88017 52.62460 35943 ft 466 kts 192°
2026-05-09 09:22 50.81650 52.60573 35941 ft 465 kts 192°
2026-05-09 09:23 50.75275 52.58792 35942 ft 465 kts 192°
2026-05-09 09:23 50.68926 52.56831 35934 ft 466 kts 193°
2026-05-09 09:24 50.62562 52.54917 35930 ft 465 kts 192°
2026-05-09 09:24 50.56206 52.53028 35933 ft 465 kts 192°
2026-05-09 09:25 50.49840 52.51180 35933 ft 466 kts 192°
2026-05-09 09:25 50.43463 52.49322 35935 ft 466 kts 192°
2026-05-09 09:26 50.37096 52.47453 35932 ft 465 kts 192°
2026-05-09 09:26 50.30727 52.45583 35943 ft 465 kts 192°
2026-05-09 09:27 50.24357 52.43685 35847 ft 466 kts 192°
2026-05-09 09:27 50.18038 52.41843 35947 ft 465 kts 191°
2026-05-09 09:28 50.11652 52.40032 35942 ft 466 kts 192°
2026-05-09 09:28 50.05303 52.38194 35941 ft 466 kts 192°
2026-05-09 09:29 49.98939 52.36339 35942 ft 465 kts 192°
2026-05-09 09:29 49.92572 52.34479 35942 ft 466 kts 192°
2026-05-09 09:30 49.86208 52.32640 35943 ft 466 kts 192°
2026-05-09 09:30 49.79850 52.30803 35942 ft 466 kts 192°
2026-05-09 09:31 49.73484 52.28954 35929 ft 466 kts 192°
2026-05-09 09:32 49.63932 52.26199 35932 ft 465 kts 192°
2026-05-09 09:32 49.57561 52.24352 35933 ft 466 kts 192°
2026-05-09 09:33 49.51191 52.22519 35930 ft 466 kts 192°
2026-05-09 09:33 49.44812 52.20700 35935 ft 466 kts 191°
2026-05-09 09:34 49.38485 52.18887 35932 ft 465 kts 192°
2026-05-09 09:34 49.32128 52.17056 35931 ft 465 kts 192°
2026-05-09 09:36 49.06648 52.09775 35933 ft 465 kts 192°
2026-05-09 09:37 49.00290 52.07967 35932 ft 465 kts 191°
2026-05-09 09:37 48.93914 52.06162 35934 ft 466 kts 191°
2026-05-09 09:38 48.87551 52.04361 35933 ft 465 kts 191°
2026-05-09 09:38 48.81178 52.02543 35931 ft 466 kts 191°
2026-05-09 09:39 48.74846 52.00743 35932 ft 466 kts 191°
2026-05-09 09:39 48.68483 51.98948 35932 ft 465 kts 191°
2026-05-09 09:40 48.62129 51.97154 35931 ft 464 kts 191°
2026-05-09 09:40 48.55777 51.95352 35932 ft 465 kts 191°
2026-05-09 09:41 48.49417 51.93569 35933 ft 465 kts 191°
2026-05-09 09:41 48.43051 51.91777 35933 ft 464 kts 191°
2026-05-09 09:42 48.36705 51.89989 35932 ft 464 kts 191°
2026-05-09 09:42 48.30353 51.88207 35932 ft 464 kts 191°
2026-05-09 09:43 48.23996 51.86430 35933 ft 465 kts 191°
2026-05-09 09:43 48.17631 51.84644 35932 ft 465 kts 191°
2026-05-09 09:44 48.11280 51.82870 35933 ft 464 kts 191°
2026-05-09 09:44 48.04921 51.81093 35942 ft 465 kts 191°
2026-05-09 09:45 47.98566 51.79312 35942 ft 465 kts 191°
2026-05-09 09:45 47.92205 51.77547 35942 ft 465 kts 191°
2026-05-09 09:46 47.85838 51.75846 35940 ft 465 kts 188°
2026-05-09 09:46 47.79402 51.74859 35943 ft 465 kts 185°
2026-05-09 09:47 47.72945 51.74163 35941 ft 465 kts 185°
2026-05-09 09:47 47.66491 51.73342 35941 ft 465 kts 186°
2026-05-09 09:48 47.60046 51.72482 35941 ft 465 kts 185°
2026-05-09 09:48 47.53609 51.71647 35941 ft 464 kts 185°
2026-05-09 09:49 47.47167 51.70796 35942 ft 465 kts 185°
2026-05-09 09:49 47.40719 51.69979 35941 ft 465 kts 185°
2026-05-09 09:50 47.34284 51.69153 35941 ft 464 kts 186°
2026-05-09 09:50 47.27897 51.68334 35942 ft 464 kts 186°
2026-05-09 09:51 47.21465 51.67515 35942 ft 464 kts 186°
2026-05-09 09:51 47.15031 51.66668 35936 ft 464 kts 186°
2026-05-09 09:52 47.08604 51.65849 35933 ft 463 kts 186°
2026-05-09 09:52 47.02192 51.65008 35943 ft 463 kts 186°
2026-05-09 09:53 46.95777 51.64202 35942 ft 463 kts 186°
2026-05-09 09:53 46.89360 51.63381 35942 ft 463 kts 186°
2026-05-09 09:54 46.82939 51.62546 35941 ft 463 kts 186°
2026-05-09 09:54 46.76530 51.61737 35941 ft 462 kts 186°
2026-05-09 09:55 46.70117 51.60922 35941 ft 462 kts 186°
2026-05-09 09:55 46.63720 51.60103 35942 ft 461 kts 186°
2026-05-09 09:56 46.57326 51.59292 35943 ft 462 kts 186°
2026-05-09 09:56 46.50913 51.58479 35943 ft 462 kts 186°
2026-05-09 09:57 46.44513 51.57651 35950 ft 461 kts 186°
2026-05-09 09:57 46.38126 51.56853 35951 ft 460 kts 186°
2026-05-09 09:58 46.31744 51.56054 35952 ft 460 kts 186°
2026-05-09 09:58 46.25372 51.55239 35960 ft 460 kts 186°
2026-05-09 09:59 46.18983 51.54435 35961 ft 461 kts 186°
2026-05-09 09:59 46.12589 51.53630 35966 ft 461 kts 186°
2026-05-09 10:00 46.06192 51.52823 35968 ft 461 kts 186°
2026-05-09 10:00 45.99805 51.52017 35969 ft 461 kts 186°
2026-05-09 10:01 45.93431 51.51210 35977 ft 459 kts 186°
2026-05-09 10:01 45.87069 51.50422 35981 ft 458 kts 186°
2026-05-09 10:02 45.80712 51.49614 35990 ft 459 kts 186°
2026-05-09 10:02 45.74383 51.48830 35987 ft 460 kts 186°
2026-05-09 10:03 45.68051 51.47643 35976 ft 457 kts 197°
2026-05-09 10:03 45.65087 51.46056 35988 ft 455 kts 208°
2026-05-09 10:03 45.62418 51.43650 36011 ft 454 kts 217°
2026-05-09 10:04 45.57243 51.38449 35996 ft 456 kts 214°
2026-05-09 10:04 45.52786 51.34543 36006 ft 455 kts 212°
2026-05-09 10:05 45.47340 51.29838 36007 ft 455 kts 212°
2026-05-09 10:05 45.41955 51.25071 36013 ft 455 kts 213°
2026-05-09 10:06 45.36616 51.20353 36014 ft 454 kts 212°
2026-05-09 10:06 45.31247 51.15634 36017 ft 454 kts 213°
2026-05-09 10:07 45.25904 51.10946 36027 ft 454 kts 212°
2026-05-09 10:07 45.20523 51.06228 36027 ft 455 kts 212°
2026-05-09 10:08 45.15158 51.01515 36037 ft 456 kts 212°
2026-05-09 10:08 45.09768 50.96796 36033 ft 455 kts 212°
2026-05-09 10:09 45.04381 50.92094 36036 ft 455 kts 212°
2026-05-09 10:09 44.98995 50.87389 36042 ft 455 kts 212°
2026-05-09 10:10 44.93633 50.82696 36061 ft 454 kts 212°
2026-05-09 10:10 44.88251 50.77991 36055 ft 455 kts 212°
2026-05-09 10:11 44.82875 50.73309 36044 ft 455 kts 212°
2026-05-09 10:11 44.77696 50.68786 36054 ft 456 kts 212°
2026-05-09 10:12 44.72298 50.64121 36055 ft 455 kts 212°
2026-05-09 10:12 44.66915 50.59433 36051 ft 455 kts 212°
2026-05-09 10:13 44.62625 50.55691 36051 ft 455 kts 213°
2026-05-09 10:13 44.57668 50.51390 36054 ft 455 kts 212°
2026-05-09 10:14 44.52262 50.46722 36064 ft 456 kts 212°
2026-05-09 10:14 44.46864 50.42046 36059 ft 457 kts 212°
2026-05-09 10:15 44.41475 50.37367 36062 ft 456 kts 212°
2026-05-09 10:15 44.36116 50.32733 36060 ft 456 kts 212°
2026-05-09 10:16 44.30709 50.28068 36065 ft 456 kts 212°
2026-05-09 10:16 44.25324 50.23420 36061 ft 456 kts 212°
2026-05-09 10:17 44.19911 50.18752 36070 ft 458 kts 212°
2026-05-09 10:17 44.14498 50.14089 36060 ft 457 kts 212°
2026-05-09 10:18 44.09084 50.09451 36065 ft 456 kts 212°
2026-05-09 10:18 44.03695 50.04806 36064 ft 457 kts 212°
2026-05-09 10:19 43.98289 50.00153 36059 ft 457 kts 212°
2026-05-09 10:19 43.92882 49.95510 36059 ft 457 kts 212°
2026-05-09 10:20 43.87476 49.90877 36058 ft 457 kts 212°
2026-05-09 10:20 43.82073 49.86253 36073 ft 457 kts 212°
2026-05-09 10:21 43.76668 49.81624 36071 ft 457 kts 212°
2026-05-09 10:21 43.71303 49.77044 36072 ft 457 kts 212°
2026-05-09 10:22 43.65856 49.72379 36072 ft 458 kts 212°
2026-05-09 10:22 43.60492 49.67781 36070 ft 457 kts 212°
2026-05-09 10:23 43.55092 49.63182 36070 ft 456 kts 212°
2026-05-09 10:23 43.49682 49.58597 36071 ft 456 kts 212°
2026-05-09 10:24 43.44310 49.53922 36069 ft 457 kts 216°
2026-05-09 10:24 43.41878 49.51138 36064 ft 456 kts 227°
2026-05-09 10:24 43.39944 49.47698 36061 ft 455 kts 242°
2026-05-09 10:24 43.38902 49.43614 36060 ft 455 kts 262°
2026-05-09 10:25 43.38728 49.39283 36120 ft 455 kts 270°
2026-05-09 10:25 43.38978 49.30569 36069 ft 456 kts 274°
2026-05-09 10:26 43.39483 49.21887 36071 ft 455 kts 274°
2026-05-09 10:26 43.39902 49.13243 36069 ft 455 kts 273°
2026-05-09 10:27 43.40300 49.04562 36071 ft 456 kts 274°
2026-05-09 10:27 43.40703 48.95869 36071 ft 456 kts 274°
2026-05-09 10:28 43.41113 48.87181 36071 ft 456 kts 274°
2026-05-09 10:28 43.41532 48.78519 36070 ft 455 kts 275°
2026-05-09 10:29 43.41977 48.69839 36059 ft 451 kts 273°
2026-05-09 10:29 43.42150 48.65605 36045 ft 435 kts 273°
2026-05-09 10:29 43.42319 48.61538 36038 ft 417 kts 274°
2026-05-09 10:30 43.42681 48.53702 36076 ft 415 kts 274°
2026-05-09 10:30 43.43215 48.45716 36036 ft 423 kts 284°
2026-05-09 10:31 43.44437 48.37792 35968 ft 426 kts 273°
2026-05-09 10:31 43.44516 48.33733 36100 ft 423 kts 271°
2026-05-09 10:31 43.44559 48.29654 36144 ft 432 kts 272°
2026-05-09 10:31 43.44674 48.25477 36122 ft 443 kts 273°
2026-05-09 10:32 43.44858 48.21208 36139 ft 452 kts 274°
2026-05-09 10:32 43.45297 48.12445 36104 ft 461 kts 274°
2026-05-09 10:33 43.45700 48.03695 36088 ft 456 kts 274°
2026-05-09 10:33 43.46088 47.95001 36096 ft 454 kts 274°
2026-05-09 10:34 43.46466 47.86511 36109 ft 453 kts 274°
2026-05-09 10:34 43.47076 47.73502 36101 ft 456 kts 274°
2026-05-09 10:35 43.47452 47.64796 36095 ft 455 kts 274°
2026-05-09 10:35 43.47840 47.56112 36091 ft 454 kts 274°
2026-05-09 10:36 43.48237 47.47434 36094 ft 455 kts 274°
2026-05-09 10:36 43.48637 47.38755 36093 ft 456 kts 274°
2026-05-09 10:37 43.49027 47.30098 36069 ft 444 kts 274°
2026-05-09 10:37 43.49214 47.25923 36062 ft 428 kts 275°
2026-05-09 10:37 43.49397 47.21891 36065 ft 417 kts 275°
2026-05-09 10:38 43.49767 47.13857 36088 ft 425 kts 275°
2026-05-09 10:38 43.50133 47.05705 36078 ft 428 kts 275°
2026-05-09 10:39 43.50498 46.97561 36077 ft 424 kts 275°
2026-05-09 10:39 43.50864 46.89471 36081 ft 423 kts 275°
2026-05-09 10:40 43.51233 46.81435 36081 ft 423 kts 275°
2026-05-09 10:40 43.51596 46.73294 36089 ft 423 kts 275°
2026-05-09 10:41 43.51963 46.65191 36091 ft 424 kts 275°
2026-05-09 10:41 43.52336 46.57088 36087 ft 424 kts 275°
2026-05-09 10:42 43.52694 46.49100 36090 ft 424 kts 275°
2026-05-09 10:42 43.53061 46.40994 36089 ft 423 kts 275°
2026-05-09 10:43 43.53425 46.32893 36095 ft 424 kts 275°
2026-05-09 10:43 43.53788 46.24789 36098 ft 424 kts 275°
2026-05-09 10:44 43.54143 46.16687 36099 ft 423 kts 275°
2026-05-09 10:44 43.54513 46.08685 36100 ft 424 kts 275°
2026-05-09 10:46 43.55380 45.88373 35894 ft 432 kts 274°
2026-05-09 10:46 43.55555 45.84211 36063 ft 437 kts 276°
2026-05-09 10:46 43.55779 45.80004 36085 ft 447 kts 276°
2026-05-09 10:47 43.56200 45.71279 36066 ft 460 kts 275°
2026-05-09 10:47 43.56576 45.62547 36033 ft 455 kts 275°
2026-05-09 10:48 43.56961 45.53950 36051 ft 455 kts 275°
2026-05-09 10:48 43.57356 45.45318 36052 ft 456 kts 275°
2026-05-09 10:49 43.57752 45.36623 36045 ft 454 kts 275°
2026-05-09 10:49 43.58147 45.27967 36049 ft 453 kts 275°
2026-05-09 10:50 43.58535 45.19375 36059 ft 452 kts 275°